Weather Roundup
Issued by NWS Chicago, IL

Home | Current Version | Previous Version | Text Only | Print | Product List | Glossary Off
Versions: 1 2 3 4 5 6 7 8 9 10 11 12 13 14 15 16 17 18 19 20 21 22 23 24 25 26 27 28 29 30 31 32 33 34 35 36 37 38 39 40 41 42 43 44 45 46 47 48 49 50

000
NZUS59 KLOT 250409
HRRLOT

CHICAGO AREA WEATHER ROUNDUP
NATIONAL WEATHER SERVICE CHICAGO/ROMEOVILLE IL
1100 PM CDT SAT JUN 24 2017

NOTE: "FAIR" INDICATES FEW OR NO CLOUDS BELOW 12,000 FEET WITH NO
SIGNIFICANT WEATHER AND/OR OBSTRUCTIONS TO VISIBILITY.

* THESE STATIONS ARE NOT UNDER NWS QUALITY CONTROL. THEY ALSO MAY NOT
  REPORT WEATHER SUCH AS PRECIPITATION OR FOG.

ILZ005-006-012>014-019>023-250500-
NORTHEAST ILLINOIS

CITY           SKY/WX    TMP DP  RH WIND       PRES   REMARKS
OHARE          LGT RAIN  63  47  55 W10       30.06R
MIDWAY         PTCLDY    64  46  52 W3        30.05F
AURORA         PTCLDY    59  51  75 S3        30.07F
LANSING*       PTCLDY    56  47  72 CALM      30.07S
JOLIET*        LGT RAIN  64  50  61 CALM      30.09R
WAUKEGAN       PTCLDY    56  50  80 CALM      30.03F
DUPAGE AIRPORT MOCLDY    59  52  77 NW7       30.06S
WHEELING       MOCLDY    62  49  62 NW6       30.06F
MORRIS*        CLOUDY    62  49  62 CALM      30.07R
LEWIS AIRPORT* CLOUDY    62  46  55 NW8       30.09R
NORTHERLY ISL    N/A     66  44  45 CALM        N/A
$$

WIZ051-052-058>065-066-070>072-250500-
SOUTHEAST WISCONSIN

CITY           SKY/WX    TMP DP  RH WIND       PRES   REMARKS
MILWAUKEE      PTCLDY    57  50  77 SW10      30.02R
KENOSHA*       CLEAR     53  49  86 W6        30.03F
RACINE*        CLEAR     55  48  77 SW6       30.03S
WAUKESHA       CLEAR     50  46  87 SW7       30.03S
WEST BEND      CLEAR     54  45  71 W10G18    30.01S
$$

INZ001>003-010>013-019-020-250500-
NORTHWEST INDIANA

CITY           SKY/WX    TMP DP  RH WIND       PRES   REMARKS
GARY*          MOCLDY    62  44  52 CALM      30.07S
MICHIGAN CITY* NOT AVBL
RENSSELAER*    NOT AVBL
VALPARAISO     PTCLDY    62  46  55 CALM      30.07F
$$

LMZ740>746-250500-
SOUTHERN LAKE MICHIGAN

STATION/POSITION TIME  SKY/WX   TEMP WIND        PRES    VSBY
                                AIR  DIR/SP/G
                 (UTC)          (F)  (DEG/KT/KT) (MB)    (MI)
HARRISON CRIB    0340            66  290/  6/  7   N/A
BURNHAM HARBOR   0400            65                N/A
CALUMET HARBOR   0348            66  270/  2/  4 1017.3R
BURNS HARBOR     0340            68  260/  7/  8 1018.3S
MICHIGAN CITY    0340            67  270/  7/  8   N/A
$$

ABBREVIATIONS USED IN REMARKS
   TC - TEMPERATURE IN CELSIUS
  WCI - WIND CHILL INDEX
   HX - HEAT INDEX
  VSB - VISIBILITY
$$



USA.gov is the U.S. government's official web portal to all federal, state and local government web resources and services.